Station 44073 - CO2 Gulf of Maine Buoy Image indicating link to RSS feed of recent meteorological observations for station 44073


Conditions at 44073 as of
(2:05 am EDT)
0605 GMT on 05/21/2024:
Note: This report is more than two hours old
     

Click on the graph icon in the table below to see a time series plot of the last five days of that observation.

5-day plot - Wind Direction Wind Direction (WDIR): S ( 170 deg true )
5-day plot - Wind Speed Wind Speed (WSPD): 11.7 kts
5-day plot - Wind Gust Wind Gust (GST): 13.6 kts
5-day plot - Air Temperature Air Temperature (ATMP): 53.2 °F
5-day plot - Water Temperature Water Temperature (WTMP): 53.8 °F
5-day plot - Salinity Salinity (SAL): 29.07 psu
5-day plot - Wind Chill Wind Chill (CHILL): 49.1 °F
5-day plot - Wind Speed at 10 Meters Wind Speed at 10 meters (WSPD10M): 13.6 kts
5-day plot - Wind Speed at 20 Meters Wind Speed at 20 meters (WSPD20M): 13.6 kts
5-day plot -  Wind Speed, Wind Gust and Atmospheric Pressure Combined plot of Wind Speed, Gust, and Air Pressure
Previous observations
TIME
(EDT)
5-day plot - Wind Direction
WDIR
 
5-day plot - Wind Speed
WSPD
kts
5-day plot - Wind Gust
GST
kts
5-day plot - Wave Height
WVHT
ft
5-day plot - Dominant Wave Period
DPD
sec
5-day plot - Average Wave Period
APD
sec
5-day plot - Mean Wave Direction
MWD
 
5-day plot - Atmospheric Pressure
PRES
in
5-day plot - Pressure Tendency
PTDY
in
5-day plot - Air Temperature
ATMP
°F
5-day plot - Water Temperature
WTMP
°F
5-day plot - Dew Point
DEWP
°F
5-day plot - Salinity
SAL
psu
5-day plot - Visibility
VIS
nmi
5-day plot - Tide (above MLLW)
TIDE
ft
2024-05-21 01:55 am S 11.7 13.6------ 53.2 53.8- 29.09--
2024-05-21 01:45 am S 11.7 13.6------ 53.2 53.8- 29.10--
2024-05-21 01:35 am S 9.7 11.7------ 53.8 54.0- 29.12--
2024-05-21 01:25 am S 9.7 11.7------ 54.0 54.1- 29.16--
2024-05-21 01:15 am S 9.7 11.7------ 54.1 54.3- 29.17--
2024-05-21 01:05 am S 9.7 11.7------ 54.0 54.3- 29.18--
2024-05-21 12:55 am S 9.7 13.6------ 54.0 54.3- 29.19--
2024-05-21 12:45 am S 11.7 13.6------ 54.0 54.5- 29.20--
2024-05-21 12:35 am S 9.7 13.6------ 53.8 54.5- 29.20--
2024-05-21 12:25 am S 9.7 11.7------ 53.4 54.5- 29.21--
2024-05-21 12:15 am S 11.7 13.6------ 53.1 54.5- 29.21--
2024-05-21 12:05 am S 11.7 13.6------ 53.1 54.5- 29.22--
2024-05-20 11:55 pm S 11.7 13.6------ 53.1 54.5- 29.21--
2024-05-20 11:45 pm S 11.7 13.6------ 53.1 54.5- 29.21--
2024-05-20 11:35 pm S 11.7 15.5------ 53.6 54.5- 29.20--
2024-05-20 11:25 pm S 11.7 15.5------ 54.7 54.5- 29.20--
2024-05-20 11:15 pm S 11.7 15.5------ 54.9 54.5- 29.20--
2024-05-20 11:05 pm S 11.7 13.6------ 54.9 54.5- 29.20--
2024-05-20 10:55 pm S 11.7 13.6------ 55.0 54.5- 29.21--
2024-05-20 10:45 pm S 11.7 13.6------ 55.0 54.5- 29.20--
2024-05-20 10:35 pm S 11.7 13.6------ 55.2 54.7- 29.19--
2024-05-20 10:25 pm S 11.7 13.6------ 55.2 54.7- 29.17--
2024-05-20 10:15 pm S 9.7 13.6------ 55.4 54.9- 29.16--
2024-05-20 10:05 pm S 11.7 13.6------ 55.4 54.9- 29.15--
2024-05-20 09:55 pm S 11.7 13.6------ 55.4 54.9- 29.15--
2024-05-20 09:45 pm S 11.7 13.6------ 55.6 54.9- 29.15--
2024-05-20 09:35 pm S 11.7 13.6------ 55.4 55.0- 29.14--
2024-05-20 09:25 pm S 9.7 13.6------ 55.4 55.0- 29.13--
2024-05-20 09:15 pm S 9.7 13.6------ 55.4 55.0- 29.12--
2024-05-20 09:05 pm S 9.7 11.7------ 55.6 55.2- 29.12--
2024-05-20 04:35 pmSSE 9.7 13.6------ 55.0 54.5- 29.21--
2024-05-20 04:25 pmSSE 9.7 11.7------ 55.0 54.5- 29.21--
2024-05-20 04:15 pmSSE 9.7 11.7------ 55.2 54.3- 29.21--
2024-05-20 04:05 pmSSE 9.7 11.7------ 55.4 54.3- 29.22--
2024-05-20 03:55 pm S 7.8 11.7------ 55.8 54.1- 29.23--
2024-05-20 03:45 pm S 7.8 9.7------ 55.6 54.1- 29.24--
2024-05-20 03:35 pmSSE 9.7 11.7------ 55.4 54.1- 29.26--
2024-05-20 03:25 pmSSE 9.7 11.7------ 55.6 54.3- 29.28--
2024-05-20 03:15 pmSSE 9.7 11.7------ 55.6 54.1- 29.29--
2024-05-20 03:05 pmSSE 7.8 9.7------ 55.6 54.1- 29.32--
2024-05-20 02:55 pmSSE 9.7 11.7------ 55.4 54.3- 29.38--
2024-05-20 02:45 pmSSE 9.7 11.7------ 55.8 54.3- 29.45--
2024-05-20 02:35 pmSSE 9.7 11.7------ 55.8 54.3- 29.46--
2024-05-20 02:25 pmSSE 9.7 11.7------ 55.9 54.0- 29.47--
2024-05-20 02:15 pmSSE 9.7 11.7------ 56.1 53.8- 29.48--
2024-05-20 02:05 pmSSE 7.8 11.7------ 56.1 53.6- 29.49--
2024-05-20 01:55 pmSSE 7.8 9.7------ 55.9 53.4- 29.50--
2024-05-20 01:45 pmSSE 7.8 9.7------ 55.9 53.4- 29.50--
2024-05-20 01:35 pmSSE 7.8 9.7------ 55.8 53.2- 29.51--
2024-05-20 01:25 pm SE 7.8 9.7------ 55.8 53.2- 29.52--
2024-05-20 01:15 pm SE 7.8 9.7------ 55.8 53.1- 29.53--
2024-05-20 01:05 pm SE 7.8 9.7------ 55.9 53.2- 29.53--
2024-05-20 12:55 pm SE 7.8 9.7------ 56.1 53.1- 29.52--
2024-05-20 12:45 pm SE 7.8 9.7------ 56.1 53.1- 29.53--
2024-05-20 12:35 pm SE 7.8 9.7------ 56.1 53.1- 29.53--
2024-05-20 12:25 pm SE 7.8 9.7------ 56.1 53.6- 29.52--
2024-05-20 12:15 pm--------- 56.3 53.8- 29.53--
2024-05-20 12:05 pmSSE 3.9 5.8------ 56.3 53.4- 29.53--
2024-05-20 11:55 am SE 3.9 7.8------ 56.3 53.1----

Ocean Conditions at 44073 as of
(2:05 am EDT)
0605 GMT on 05/21/2024:
Note: This report is more than two hours old

These oceanographic data are displayed in rounded times.

     

Click on the graph icon in the table below to see a time series plot of the last five days of that observation.

Depth (DEPTH): 3.3 ft
5-day plot - Ocean Temperature Ocean Temperature (OTMP):53.82 °F
5-day plot - Salinity Salinity (SAL):29.07 psu
Previous observations
TIME
(EDT)
DEPTH
ft
5-day plot - Ocean Temperature
OTMP
°F
5-day plot - Conductivity
COND
mS/cm
5-day plot - Salinity
SAL
psu
5-day plot - Oxygen Concentration
O2%
%
5-day plot - Oxygen Concentration
O2PPM
ppm
5-day plot - Chlorophyll
CLCON
ug/l
5-day plot - Turbidity
TURB
FTU
5-day plot - pH
PH
 
5-day plot - Eh
EH
mv
2024-05-21 01:55 am 3.353.82-29.09------
2024-05-21 01:45 am 3.353.80-29.10------
2024-05-21 01:35 am 3.353.87-29.12------
2024-05-21 01:25 am 3.354.12-29.16------
2024-05-21 01:15 am 3.354.25-29.17------
2024-05-21 01:05 am 3.354.32-29.18------
2024-05-21 12:55 am 3.354.37-29.19------
2024-05-21 12:45 am 3.354.41-29.20------
2024-05-21 12:35 am 3.354.43-29.20------
2024-05-21 12:25 am 3.354.41-29.21------
2024-05-21 12:15 am 3.354.43-29.21------
2024-05-21 12:05 am 3.354.46-29.22------
2024-05-20 11:55 pm 3.354.46-29.21------
2024-05-20 11:45 pm 3.354.48-29.21------
2024-05-20 11:35 pm 3.354.50-29.20------
2024-05-20 11:25 pm 3.354.50-29.20------
2024-05-20 11:15 pm 3.354.48-29.20------
2024-05-20 11:05 pm 3.354.45-29.20------
2024-05-20 10:55 pm 3.354.45-29.21------
2024-05-20 10:45 pm 3.354.50-29.20------
2024-05-20 10:35 pm 3.354.59-29.19------
2024-05-20 10:25 pm 3.354.72-29.17------
2024-05-20 10:15 pm 3.354.81-29.16------
2024-05-20 10:05 pm 3.354.86-29.15------
2024-05-20 09:55 pm 3.354.86-29.15------
2024-05-20 09:45 pm 3.354.90-29.15------
2024-05-20 09:35 pm 3.354.99-29.14------
2024-05-20 09:25 pm 3.355.06-29.13------
2024-05-20 09:15 pm 3.355.06-29.12------
2024-05-20 09:05 pm 3.355.13-29.12------
2024-05-20 04:35 pm 3.354.59-29.21------
2024-05-20 04:25 pm 3.354.48-29.21------
2024-05-20 04:15 pm 3.354.37-29.21------
2024-05-20 04:05 pm 3.354.28-29.22------
2024-05-20 03:55 pm 3.354.21-29.23------
2024-05-20 03:45 pm 3.354.18-29.24------
2024-05-20 03:35 pm 3.354.18-29.26------
2024-05-20 03:25 pm 3.354.23-29.28------
2024-05-20 03:15 pm 3.354.19-29.29------
2024-05-20 03:05 pm 3.354.18-29.32------
2024-05-20 02:55 pm 3.354.27-29.38------
2024-05-20 02:45 pm 3.354.34-29.45------
2024-05-20 02:35 pm 3.354.23-29.46------
2024-05-20 02:25 pm 3.353.91-29.47------
2024-05-20 02:15 pm 3.353.74-29.48------
2024-05-20 02:05 pm 3.353.64-29.49------
2024-05-20 01:55 pm 3.353.51-29.50------
2024-05-20 01:45 pm 3.353.40-29.50------
2024-05-20 01:35 pm 3.353.31-29.51------
2024-05-20 01:15 pm 3.353.08-29.52------
2024-05-20 01:05 pm 3.353.19-29.53------
2024-05-20 12:55 pm 3.353.11-29.53------
2024-05-20 12:45 pm 3.353.04-29.52------
2024-05-20 12:35 pm 3.353.15-29.53------
2024-05-20 12:25 pm 3.353.51-29.53------
2024-05-20 12:15 pm 3.353.76-29.52------
2024-05-20 12:05 pm 3.353.47-29.53------
2024-05-20 11:55 am 3.353.15-29.53------